Location: Sungai Bunut
(2.6333°N, 113.7333°E)
Time: 15:01:38
(UTC+00:00)

Cosmos 1697 Rocket - Pass Details

Date: 22 May 2022
Orbit: 833 x 843 km, 71.0° (Epoch: 03 July)

Event Time Altitude Azimuth Distance (km) Brightness Sun altitude
Enters shadow 13:02:40 -1° 215° (SW) 3,445 6.0 -36.0°
Exits shadow 13:10:26 30° 286° (WNW) 1,453 4.3 -37.8°
Drops below altitude 10° 13:15:17 10° 346° (NNW) 2,450 5.5 -38.8°
Sets 13:18:00 0° 357° (N) 3,383 6.2 -39.4°
